Tracking 18850 objects as of 22-Nov-2017
HD Live streaming from Space Station
objects crossing your sky now

FENGYUN 1C DEB

Track FENGYUN 1C DEB now!
10-day predictions


NORAD ID: 38160
Int'l Code: 1999-025ERH
Perigee: 817.6 km
Apogee: 869.3 km
Inclination: 99.1 °
Period: 101.6 minutes
Semi major axis: 7214 km
RCS: 0.0125 m2 (small)
Launch date: May 10, 1999
Source: People's Republic of China (PRC)
Launch site: Taiyaun Space Center, China (TSC)

Note: This is SATELLITE DEBRIS
aabbcc
Your satellite tracking list
Your tracking list is empty




NASA's NSSDC Master Catalog

Two Line Element Set (TLE):
1 38160U 99025ERH 17323.92207048 +.00001622 +00000-0 +82876-3 0  9996
2 38160 099.0529 014.8937 0035838 236.4237 123.3513 14.16756084225391
Source of the keplerian elements: AFSPC